SL-8 R/B

Satellite information

Favourite Embed

Satellite Type and Status

ROCKET BODYIN ORBIT

Key statistics

Satellite SL-8 R/B at a glance.

Uptime

13977

Days in orbit

Revolutions

≈ 13.8

Per day

Orbit

LEO

Low Earth Orbit

Inclination

82.9

Latest

Satellite identification and parameters

Extended collection of information and parameters for SL-8 R/B.

Object identification

Identified? True

Debris? False

Object name: SL-8 R/B

International designator: 1987-009B

Object number (NORAD): 17360

Object ID (CCSDS): 17360

Country: COMMONWEALTH OF INDEPENDENT STATES (CIS)

Current information (Y/N): Y

RCS size: LARGE

Orbital parameters

Period: 104.575 minutes

Inclination: 82.9163 deg

SMA: 7352.674 km

Apoapsis: 999.164 km

Periapsis: 949.914 km

RAAN: 281.1508 deg

Eccentricy: 0.0033491

Argument of periapsis: 60.1188 deg

Mean anomaly: 103.9684 deg

Mean motion: 13.77002629 rev/day

Mean motion (dot): 0.0000014 rev/day2

B* drag term: 0.00012525 1/REarth

Two-line elements (TLE)

Creation date: May 6, 2025, 3:54 a.m.

Reference frame: TEME

Reference center: EARTH

Epoch: May 5, 2025, 8:58 p.m. UTC

TLE line 0: 0 SL-8 R/B

TLE line 1: 1 17360U 87009B 25125.87420317 .00000140 00000-0 12525-3 0 9991

TLE line 2: 2 17360 82.9163 281.1508 0033491 60.1188 103.9684 13.77002629922244

Live tracking on map

Real-time ground track for satellite SL-8 R/B.

In-orbit conjunctions

A list of the most updated potential collisions computed for object SL-8 R/B.

Target Orbit TCA Probability of collision Miss distance Type
COSMOS 970 DEB LEO 2024-11-29 04:11:04 0.0002281285 804.0 (m) DEBRIS
NIMBUS 2 DEB SSO 2024-07-09 23:21:25 0.0001200214 490.0 (m) DEBRIS

Associated space launch

Civilian navigation satellite equivalent to the purely military Parus

SL-8 R/B was lifted into orbit during the mission ‘Kosmos-3M | Tsikada 15’, on board a Kosmos-3M space rocket.

The launch took place on Jan. 29, 1987, 6:14 a.m. from 132/2.

For more information about the launch, click the button.

Launch to space Kosmos-3M | Tsikada 15
Kosmos-3M | Tsikada 15

Agency: N/A

Status: Launch Successful

Launch date: Jan. 29, 1987, 6:14 a.m. UTC

Rocket: Kosmos-3M

Launch pad: 132/2

Location: Plesetsk Cosmodrome, Russian Federation

...

Latest news about this satellite

There are no fresh news available about this satellite. Check back as we update our databases every day.


Newsletter sign-up

Weekly statistics, charts and insights to help you stay on top of the space industry.